owner,sensor,date,latitude,longitude,vertical_datum,mass_concentration_of_oxygen_in_sea_water,qcFlag 
SCCF RECON,ioos:station:SCCF:13:1,2008-01-16T18:00:00Z,26.5255,-82.0032,2.1,7.48,1111122 
SCCF RECON,ioos:station:SCCF:13:1,2008-01-16T19:00:00Z,26.5255,-82.0032,2.09,7.65,1111122 
SCCF RECON,ioos:station:SCCF:13:1,2008-01-16T20:00:00Z,26.5255,-82.0032,2.14,7.89,1111122 
SCCF RECON,ioos:station:SCCF:13:1,2008-01-16T21:00:00Z,26.5255,-82.0032,2.22,7.42,1111122 
SCCF RECON,ioos:station:SCCF:13:1,2008-01-16T22:00:00Z,26.5255,-82.0032,2.29,7.47,1111122 
SCCF RECON,ioos:station:SCCF:13:1,2008-01-16T23:00:00Z,26.5255,-82.0032,2.36,7.27,1111122 
SCCF RECON,ioos:station:SCCF:13:1,2008-01-17T00:00:00Z,26.5255,-82.0032,2.418,7.09,1111122 
SCCF RECON,ioos:station:SCCF:13:1,2008-01-17T01:00:00Z,26.5255,-82.0032,2.42,6.91,1111122 
SCCF RECON,ioos:station:SCCF:13:1,2008-01-17T03:00:00Z,26.5255,-82.0032,2.285,6.88,1111122 
SCCF RECON,ioos:station:SCCF:13:1,2008-01-17T04:00:00Z,26.5255,-82.0032,2.189,6.79,1111122 
SCCF RECON,ioos:station:SCCF:13:1,2008-01-17T05:00:00Z,26.5255,-82.0032,2.1,6.7,1111122 
SCCF RECON,ioos:station:SCCF:13:1,2008-01-17T06:00:00Z,26.5255,-82.0032,2.032,6.89,1111122 
SCCF RECON,ioos:station:SCCF:13:1,2008-01-17T07:00:00Z,26.5255,-82.0032,1.98,6.8,1111122 
SCCF RECON,ioos:station:SCCF:13:1,2008-01-17T08:00:00Z,26.5255,-82.0032,1.97,6.81,1111122 
SCCF RECON,ioos:station:SCCF:13:1,2008-01-17T09:00:00Z,26.5255,-82.0032,2.02,6.71,1111122 
SCCF RECON,ioos:station:SCCF:13:1,2008-01-17T11:00:00Z,26.5255,-82.0032,2.197,6.26,1111122 
SCCF RECON,ioos:station:SCCF:13:1,2008-01-17T12:00:00Z,26.5255,-82.0032,2.216,6.17,1111122 
SCCF RECON,ioos:station:SCCF:13:1,2008-01-17T13:00:00Z,26.5255,-82.0032,2.25,6.18,1111122 
SCCF RECON,ioos:station:SCCF:13:1,2008-01-17T14:00:00Z,26.5255,-82.0032,2.3,6.22,1111122 
SCCF RECON,ioos:station:SCCF:13:1,2008-01-17T15:00:00Z,26.5255,-82.0032,2.32,6.32,1111122 
SCCF RECON,ioos:station:SCCF:13:1,2008-01-17T16:00:00Z,26.5255,-82.0032,2.37,6.39,1111122 
SCCF RECON,ioos:station:SCCF:13:1,2008-01-17T17:00:00Z,26.5255,-82.0032,2.41,6.38,1111122 
SCCF RECON,ioos:station:SCCF:13:1,2008-01-17T18:00:00Z,26.5255,-82.0032,2.39,6.35,1111122 
SCCF RECON,ioos:station:SCCF:13:1,2008-01-17T19:00:00Z,26.5255,-82.0032,2.38,6.51,1111122 
SCCF RECON,ioos:station:SCCF:13:1,2008-01-17T20:00:00Z,26.5255,-82.0032,2.37,6.7,1111122 
SCCF RECON,ioos:station:SCCF:13:1,2008-01-17T21:00:00Z,26.5255,-82.0032,2.43,6.74,1111122 
SCCF RECON,ioos:station:SCCF:13:1,2008-01-17T22:00:00Z,26.5255,-82.0032,2.5,6.57,1111122 
SCCF RECON,ioos:station:SCCF:13:1,2008-01-17T23:00:00Z,26.5255,-82.0032,2.56,6.47,1111122 
SCCF RECON,ioos:station:SCCF:13:1,2008-01-18T00:00:00Z,26.5255,-82.0032,2.587,6.37,1111122 
SCCF RECON,ioos:station:SCCF:13:1,2008-01-18T01:00:00Z,26.5255,-82.0032,2.588,6.27,1111122 
SCCF RECON,ioos:station:SCCF:13:1,2008-01-18T02:00:00Z,26.5255,-82.0032,2.56,6.22,1111122 
SCCF RECON,ioos:station:SCCF:13:1,2008-01-18T03:00:00Z,26.5255,-82.0032,2.51,6.25,1111122 
SCCF RECON,ioos:station:SCCF:13:1,2008-01-18T04:00:00Z,26.5255,-82.0032,2.44,6.25,1111122 
SCCF RECON,ioos:station:SCCF:13:1,2008-01-18T05:00:00Z,26.5255,-82.0032,2.34,6.15,1111122 
SCCF RECON,ioos:station:SCCF:13:1,2008-01-18T06:00:00Z,26.5255,-82.0032,2.239,6.39,1111122 
SCCF RECON,ioos:station:SCCF:13:1,2008-01-18T07:00:00Z,26.5255,-82.0032,2.131,6.47,1111122 
SCCF RECON,ioos:station:SCCF:13:1,2008-01-18T08:00:00Z,26.5255,-82.0032,2.04,6.45,1111122 
SCCF RECON,ioos:station:SCCF:13:1,2008-01-18T09:00:00Z,26.5255,-82.0032,1.97,6.41,1111122 
SCCF RECON,ioos:station:SCCF:13:1,2008-01-18T10:00:00Z,26.5255,-82.0032,1.95,6.39,1111122 
SCCF RECON,ioos:station:SCCF:13:1,2008-01-18T11:00:00Z,26.5255,-82.0032,2.039,6.36,1111122 
SCCF RECON,ioos:station:SCCF:13:1,2008-01-18T12:00:00Z,26.5255,-82.0032,2.11,6.23,1111122 
SCCF RECON,ioos:station:SCCF:13:1,2008-01-18T13:00:00Z,26.5255,-82.0032,2.15,6.15,1111122 
SCCF RECON,ioos:station:SCCF:13:1,2008-01-18T14:00:00Z,26.5255,-82.0032,2.2,6.04,1111122 
SCCF RECON,ioos:station:SCCF:13:1,2008-01-18T15:00:00Z,26.5255,-82.0032,2.25,5.52,1111122 
SCCF RECON,ioos:station:SCCF:13:1,2008-01-18T16:00:00Z,26.5255,-82.0032,2.28,5.88,1111122 
SCCF RECON,ioos:station:SCCF:13:1,2008-01-18T17:00:00Z,26.5255,-82.0032,2.3,6.06,1111122 
SCCF RECON,ioos:station:SCCF:13:1,2008-01-18T18:00:00Z,26.5255,-82.0032,2.304,6.09,1111122 
SCCF RECON,ioos:station:SCCF:13:1,2008-01-18T19:00:00Z,26.5255,-82.0032,2.29,5.82,1111122 
SCCF RECON,ioos:station:SCCF:13:1,2008-01-18T20:00:00Z,26.5255,-82.0032,2.268,5.96,1111122 
SCCF RECON,ioos:station:SCCF:13:1,2008-01-18T21:00:00Z,26.5255,-82.0032,2.28,6.04,1111122 
SCCF RECON,ioos:station:SCCF:13:1,2008-01-18T22:00:00Z,26.5255,-82.0032,2.34,6.22,1111122 
SCCF RECON,ioos:station:SCCF:13:1,2008-01-18T23:00:00Z,26.5255,-82.0032,2.42,6.02,1111122 
SCCF RECON,ioos:station:SCCF:13:1,2008-01-19T02:00:00Z,26.5255,-82.0032,2.53,6.1,1111122 
SCCF RECON,ioos:station:SCCF:13:1,2008-01-19T03:00:00Z,26.5255,-82.0032,2.51,6.05,1111122 
SCCF RECON,ioos:station:SCCF:13:1,2008-01-19T04:00:00Z,26.5255,-82.0032,2.46,6.1,1111122 
SCCF RECON,ioos:station:SCCF:13:1,2008-01-19T05:00:00Z,26.5255,-82.0032,2.36,6.11,1111122 
SCCF RECON,ioos:station:SCCF:13:1,2008-01-19T06:00:00Z,26.5255,-82.0032,2.26,5.99,1111122 
SCCF RECON,ioos:station:SCCF:13:1,2008-01-19T07:00:00Z,26.5255,-82.0032,2.16,6.01,1111122 
SCCF RECON,ioos:station:SCCF:13:1,2008-01-19T08:00:00Z,26.5255,-82.0032,2.06,6.1,1111122 
SCCF RECON,ioos:station:SCCF:13:1,2008-01-19T09:00:00Z,26.5255,-82.0032,1.981,6.29,1111122 
SCCF RECON,ioos:station:SCCF:13:1,2008-01-19T10:00:00Z,26.5255,-82.0032,1.92,6.22,1111122 
SCCF RECON,ioos:station:SCCF:13:1,2008-01-19T11:00:00Z,26.5255,-82.0032,1.886,6.23,1111122 
SCCF RECON,ioos:station:SCCF:13:1,2008-01-19T12:00:00Z,26.5255,-82.0032,1.94,6.23,1111122 
SCCF RECON,ioos:station:SCCF:13:1,2008-01-19T13:00:00Z,26.5255,-82.0032,2.05,6.11,1111122 
SCCF RECON,ioos:station:SCCF:13:1,2008-01-19T14:00:00Z,26.5255,-82.0032,2.12,5.8,1111122 
SCCF RECON,ioos:station:SCCF:13:1,2008-01-19T15:00:00Z,26.5255,-82.0032,2.188,5.57,1111122 
SCCF RECON,ioos:station:SCCF:13:1,2008-01-19T16:00:00Z,26.5255,-82.0032,2.255,6.14,1111122 
SCCF RECON,ioos:station:SCCF:13:1,2008-01-19T17:00:00Z,26.5255,-82.0032,2.29,6.17,1111122 
SCCF RECON,ioos:station:SCCF:13:1,2008-01-19T18:00:00Z,26.5255,-82.0032,2.282,6.21,1111122 
SCCF RECON,ioos:station:SCCF:13:1,2008-01-19T19:00:00Z,26.5255,-82.0032,2.26,6.45,1111122 
SCCF RECON,ioos:station:SCCF:13:1,2008-01-19T20:00:00Z,26.5255,-82.0032,2.271,6.73,1111122 
SCCF RECON,ioos:station:SCCF:13:1,2008-01-19T21:00:00Z,26.5255,-82.0032,2.312,6.77,1111122 
SCCF RECON,ioos:station:SCCF:13:1,2008-01-19T22:00:00Z,26.5255,-82.0032,2.35,6.65,1111122 
SCCF RECON,ioos:station:SCCF:13:1,2008-01-19T23:00:00Z,26.5255,-82.0032,2.381,6.49,1111122 
SCCF RECON,ioos:station:SCCF:13:1,2008-01-20T00:00:00Z,26.5255,-82.0032,2.439,6.34,1111122 
SCCF RECON,ioos:station:SCCF:13:1,2008-01-20T01:00:00Z,26.5255,-82.0032,2.524,6.38,1111122 
SCCF RECON,ioos:station:SCCF:13:1,2008-01-20T02:00:00Z,26.5255,-82.0032,2.59,6.47,1111122 
SCCF RECON,ioos:station:SCCF:13:1,2008-01-20T07:00:00Z,26.5255,-82.0032,2.43,6.14,1111122 
SCCF RECON,ioos:station:SCCF:13:1,2008-01-20T08:00:00Z,26.5255,-82.0032,2.33,6.28,1111122 
SCCF RECON,ioos:station:SCCF:13:1,2008-01-20T09:00:00Z,26.5255,-82.0032,2.225,6.23,1111122 
SCCF RECON,ioos:station:SCCF:13:1,2008-01-20T10:00:00Z,26.5255,-82.0032,2.119,6.32,1111122 
SCCF RECON,ioos:station:SCCF:13:1,2008-01-20T11:00:00Z,26.5255,-82.0032,2.03,6.41,1111122 
SCCF RECON,ioos:station:SCCF:13:1,2008-01-20T13:00:00Z,26.5255,-82.0032,1.92,6.46,1111122 
SCCF RECON,ioos:station:SCCF:13:1,2008-01-20T14:00:00Z,26.5255,-82.0032,1.933,6.54,1111122 
SCCF RECON,ioos:station:SCCF:13:1,2008-01-20T15:00:00Z,26.5255,-82.0032,1.944,6.54,1111122 
SCCF RECON,ioos:station:SCCF:13:1,2008-01-20T16:00:00Z,26.5255,-82.0032,1.939,6.51,1111122 
SCCF RECON,ioos:station:SCCF:13:1,2008-01-20T17:00:00Z,26.5255,-82.0032,1.955,6.68,1111122 
SCCF RECON,ioos:station:SCCF:13:1,2008-01-20T18:00:00Z,26.5255,-82.0032,1.921,6.65,1111122 
SCCF RECON,ioos:station:SCCF:13:1,2008-01-20T19:00:00Z,26.5255,-82.0032,1.9,6.81,1111122 
SCCF RECON,ioos:station:SCCF:13:1,2008-01-20T20:00:00Z,26.5255,-82.0032,1.89,6.74,1111122 
SCCF RECON,ioos:station:SCCF:13:1,2008-01-20T21:00:00Z,26.5255,-82.0032,1.9,6.81,1111122 
SCCF RECON,ioos:station:SCCF:13:1,2008-01-20T22:00:00Z,26.5255,-82.0032,1.929,6.77,1111122 
SCCF RECON,ioos:station:SCCF:13:1,2008-01-20T23:00:00Z,26.5255,-82.0032,1.873,6.82,1111122 
SCCF RECON,ioos:station:SCCF:13:1,2008-01-21T00:00:00Z,26.5255,-82.0032,1.95,6.79,1111122 
SCCF RECON,ioos:station:SCCF:13:1,2008-01-21T01:00:00Z,26.5255,-82.0032,2.053,6.61,1111122 
SCCF RECON,ioos:station:SCCF:13:1,2008-01-21T02:00:00Z,26.5255,-82.0032,2.13,6.85,1111122 
SCCF RECON,ioos:station:SCCF:13:1,2008-01-21T03:00:00Z,26.5255,-82.0032,2.149,6.77,1111122 
SCCF RECON,ioos:station:SCCF:13:1,2008-01-21T04:00:00Z,26.5255,-82.0032,2.192,6.68,1111122 
SCCF RECON,ioos:station:SCCF:13:1,2008-01-21T05:00:00Z,26.5255,-82.0032,2.22,6.65,1111122 
SCCF RECON,ioos:station:SCCF:13:1,2008-01-21T06:00:00Z,26.5255,-82.0032,2.16,6.58,1111122 
SCCF RECON,ioos:station:SCCF:13:1,2008-01-21T07:00:00Z,26.5255,-82.0032,2.03,6.69,1111122 
SCCF RECON,ioos:station:SCCF:13:1,2008-01-21T08:00:00Z,26.5255,-82.0032,1.95,6.69,1111122 
SCCF RECON,ioos:station:SCCF:13:1,2008-01-21T09:00:00Z,26.5255,-82.0032,1.855,6.66,1111122 
SCCF RECON,ioos:station:SCCF:13:1,2008-01-21T11:00:00Z,26.5255,-82.0032,1.701,6.8,1111122 
SCCF RECON,ioos:station:SCCF:13:1,2008-01-21T14:00:00Z,26.5255,-82.0032,1.72,7.0,1111122 
SCCF RECON,ioos:station:SCCF:13:1,2008-01-21T15:00:00Z,26.5255,-82.0032,1.83,6.98,1111122 
SCCF RECON,ioos:station:SCCF:13:1,2008-01-21T16:00:00Z,26.5255,-82.0032,1.91,6.98,1111122 
SCCF RECON,ioos:station:SCCF:13:1,2008-01-21T17:00:00Z,26.5255,-82.0032,1.98,7.05,1111122 
SCCF RECON,ioos:station:SCCF:13:1,2008-01-21T18:00:00Z,26.5255,-82.0032,2.028,7.0,1111122 
SCCF RECON,ioos:station:SCCF:13:1,2008-01-21T19:00:00Z,26.5255,-82.0032,2.059,7.23,1111122 
SCCF RECON,ioos:station:SCCF:13:1,2008-01-21T20:00:00Z,26.5255,-82.0032,2.071,7.43,1111122 
SCCF RECON,ioos:station:SCCF:13:1,2008-01-21T21:00:00Z,26.5255,-82.0032,2.097,7.43,1111122 
SCCF RECON,ioos:station:SCCF:13:1,2008-01-21T22:00:00Z,26.5255,-82.0032,2.11,7.47,1111122 
SCCF RECON,ioos:station:SCCF:13:1,2008-01-22T02:00:00Z,26.5255,-82.0032,2.31,6.94,1111122 
SCCF RECON,ioos:station:SCCF:13:1,2008-01-22T03:00:00Z,26.5255,-82.0032,2.371,7.0,1111122 
SCCF RECON,ioos:station:SCCF:13:1,2008-01-22T04:00:00Z,26.5255,-82.0032,2.444,6.88,1111122 
SCCF RECON,ioos:station:SCCF:13:1,2008-01-22T05:00:00Z,26.5255,-82.0032,2.5,6.73,1111122 
SCCF RECON,ioos:station:SCCF:13:1,2008-01-22T06:00:00Z,26.5255,-82.0032,2.5,6.55,1111122 
SCCF RECON,ioos:station:SCCF:13:1,2008-01-22T07:00:00Z,26.5255,-82.0032,2.44,6.62,1111122 
SCCF RECON,ioos:station:SCCF:13:1,2008-01-22T08:00:00Z,26.5255,-82.0032,2.32,6.63,1111122 
SCCF RECON,ioos:station:SCCF:13:1,2008-01-22T09:00:00Z,26.5255,-82.0032,2.23,6.57,1111122 
SCCF RECON,ioos:station:SCCF:13:1,2008-01-22T10:00:00Z,26.5255,-82.0032,2.14,6.53,1111122 
SCCF RECON,ioos:station:SCCF:13:1,2008-01-22T11:00:00Z,26.5255,-82.0032,2.061,6.6,1111122 
SCCF RECON,ioos:station:SCCF:13:1,2008-01-22T12:00:00Z,26.5255,-82.0032,1.989,6.67,1111122 
SCCF RECON,ioos:station:SCCF:13:1,2008-01-22T13:00:00Z,26.5255,-82.0032,1.929,6.69,1111122 
SCCF RECON,ioos:station:SCCF:13:1,2008-01-22T14:00:00Z,26.5255,-82.0032,1.95,6.78,1111122 
SCCF RECON,ioos:station:SCCF:13:1,2008-01-22T15:00:00Z,26.5255,-82.0032,2.07,6.99,1111122 
SCCF RECON,ioos:station:SCCF:13:1,2008-01-22T16:00:00Z,26.5255,-82.0032,2.17,6.83,1111122 
SCCF RECON,ioos:station:SCCF:13:1,2008-01-22T17:00:00Z,26.5255,-82.0032,2.25,7.19,1111122 
SCCF RECON,ioos:station:SCCF:13:1,2008-01-22T18:00:00Z,26.5255,-82.0032,2.3,7.29,1111122 
SCCF RECON,ioos:station:SCCF:13:1,2008-01-22T19:00:00Z,26.5255,-82.0032,2.34,7.13,1111122 
SCCF RECON,ioos:station:SCCF:13:1,2008-01-22T20:00:00Z,26.5255,-82.0032,2.34,7.24,1111122 
SCCF RECON,ioos:station:SCCF:13:1,2008-01-22T21:00:00Z,26.5255,-82.0032,2.33,7.3,1111122 
SCCF RECON,ioos:station:SCCF:13:1,2008-01-22T22:00:00Z,26.5255,-82.0032,2.29,7.09,1111122 
SCCF RECON,ioos:station:SCCF:13:1,2008-01-22T23:00:00Z,26.5255,-82.0032,2.25,6.91,1111122 
SCCF RECON,ioos:station:SCCF:13:1,2008-01-23T01:00:00Z,26.5255,-82.0032,2.32,6.47,1111122 
SCCF RECON,ioos:station:SCCF:13:1,2008-01-23T02:00:00Z,26.5255,-82.0032,2.4,6.69,1111122 
SCCF RECON,ioos:station:SCCF:13:1,2008-01-23T03:00:00Z,26.5255,-82.0032,2.5,6.91,1111122 
SCCF RECON,ioos:station:SCCF:13:1,2008-01-23T04:00:00Z,26.5255,-82.0032,2.58,6.77,1111122 
SCCF RECON,ioos:station:SCCF:13:1,2008-01-23T05:00:00Z,26.5255,-82.0032,2.63,6.68,1111122 
SCCF RECON,ioos:station:SCCF:13:1,2008-01-23T06:00:00Z,26.5255,-82.0032,2.649,6.68,1111122 
SCCF RECON,ioos:station:SCCF:13:1,2008-01-23T07:00:00Z,26.5255,-82.0032,2.61,6.59,1111122 
SCCF RECON,ioos:station:SCCF:13:1,2008-01-23T08:00:00Z,26.5255,-82.0032,2.521,6.65,1111122 
SCCF RECON,ioos:station:SCCF:13:1,2008-01-23T09:00:00Z,26.5255,-82.0032,2.41,6.59,1111122 
SCCF RECON,ioos:station:SCCF:13:1,2008-01-23T10:00:00Z,26.5255,-82.0032,2.31,6.53,1111122 
SCCF RECON,ioos:station:SCCF:13:1,2008-01-23T11:00:00Z,26.5255,-82.0032,2.211,6.46,1111122 
SCCF RECON,ioos:station:SCCF:13:1,2008-01-23T12:00:00Z,26.5255,-82.0032,2.12,6.5,1111122 
SCCF RECON,ioos:station:SCCF:13:1,2008-01-23T13:00:00Z,26.5255,-82.0032,2.037,6.57,1111122 
SCCF RECON,ioos:station:SCCF:13:1,2008-01-23T14:00:00Z,26.5255,-82.0032,1.99,6.6,1111122 
SCCF RECON,ioos:station:SCCF:13:1,2008-01-23T15:00:00Z,26.5255,-82.0032,2.054,6.82,1111122 
SCCF RECON,ioos:station:SCCF:13:1,2008-01-23T16:00:00Z,26.5255,-82.0032,2.22,6.91,1111122 
SCCF RECON,ioos:station:SCCF:13:1,2008-01-23T17:00:00Z,26.5255,-82.0032,2.292,6.75,1111122 
SCCF RECON,ioos:station:SCCF:13:1,2008-01-23T18:00:00Z,26.5255,-82.0032,2.323,7.35,1111122 
SCCF RECON,ioos:station:SCCF:13:1,2008-01-23T19:00:00Z,26.5255,-82.0032,2.362,7.1,1111122 
SCCF RECON,ioos:station:SCCF:13:1,2008-01-23T20:00:00Z,26.5255,-82.0032,2.39,6.97,1111122 
SCCF RECON,ioos:station:SCCF:13:1,2008-01-23T21:00:00Z,26.5255,-82.0032,2.36,7.06,1111122 
SCCF RECON,ioos:station:SCCF:13:1,2008-01-23T22:00:00Z,26.5255,-82.0032,2.31,7.12,1111122 
SCCF RECON,ioos:station:SCCF:13:1,2008-01-23T23:00:00Z,26.5255,-82.0032,2.26,7.19,1111122 
SCCF RECON,ioos:station:SCCF:13:1,2008-01-24T00:00:00Z,26.5255,-82.0032,2.211,7.17,1111122 
SCCF RECON,ioos:station:SCCF:13:1,2008-01-24T01:00:00Z,26.5255,-82.0032,2.2,7.11,1111122 
SCCF RECON,ioos:station:SCCF:13:1,2008-01-24T02:00:00Z,26.5255,-82.0032,2.23,7.06,1111122 
SCCF RECON,ioos:station:SCCF:13:1,2008-01-24T03:00:00Z,26.5255,-82.0032,2.357,6.97,1111122 
SCCF RECON,ioos:station:SCCF:13:1,2008-01-24T04:00:00Z,26.5255,-82.0032,2.46,6.68,1111122 
SCCF RECON,ioos:station:SCCF:13:1,2008-01-24T05:00:00Z,26.5255,-82.0032,2.52,6.77,1111122 
SCCF RECON,ioos:station:SCCF:13:1,2008-01-24T06:00:00Z,26.5255,-82.0032,2.57,6.85,1111122 
SCCF RECON,ioos:station:SCCF:13:1,2008-01-24T07:00:00Z,26.5255,-82.0032,2.59,6.65,1111122 
SCCF RECON,ioos:station:SCCF:13:1,2008-01-24T08:00:00Z,26.5255,-82.0032,2.53,6.49,1111122 
SCCF RECON,ioos:station:SCCF:13:1,2008-01-24T09:00:00Z,26.5255,-82.0032,2.42,6.56,1111122 
SCCF RECON,ioos:station:SCCF:13:1,2008-01-24T11:00:00Z,26.5255,-82.0032,2.23,6.4,1111122 
SCCF RECON,ioos:station:SCCF:13:1,2008-01-24T12:00:00Z,26.5255,-82.0032,2.143,6.45,1111122 
SCCF RECON,ioos:station:SCCF:13:1,2008-01-24T13:00:00Z,26.5255,-82.0032,2.068,6.56,1111122 
SCCF RECON,ioos:station:SCCF:13:1,2008-01-24T14:00:00Z,26.5255,-82.0032,2.0,6.56,1111122 
SCCF RECON,ioos:station:SCCF:13:1,2008-01-24T15:00:00Z,26.5255,-82.0032,1.988,6.71,1111122 
SCCF RECON,ioos:station:SCCF:13:1,2008-01-24T16:00:00Z,26.5255,-82.0032,2.1,6.85,1111122 
SCCF RECON,ioos:station:SCCF:13:1,2008-01-24T17:00:00Z,26.5255,-82.0032,2.21,6.8,1111122 
SCCF RECON,ioos:station:SCCF:13:1,2008-01-24T18:00:00Z,26.5255,-82.0032,2.263,6.72,1111122 
SCCF RECON,ioos:station:SCCF:13:1,2008-01-24T19:00:00Z,26.5255,-82.0032,2.31,6.84,1111122 
SCCF RECON,ioos:station:SCCF:13:1,2008-01-24T20:00:00Z,26.5255,-82.0032,2.34,6.83,1111122 
SCCF RECON,ioos:station:SCCF:13:1,2008-01-24T21:00:00Z,26.5255,-82.0032,2.31,6.68,1111122 
SCCF RECON,ioos:station:SCCF:13:1,2008-01-24T22:00:00Z,26.5255,-82.0032,2.25,6.81,1111122 
SCCF RECON,ioos:station:SCCF:13:1,2008-01-24T23:00:00Z,26.5255,-82.0032,2.19,6.88,1111122 
SCCF RECON,ioos:station:SCCF:13:1,2008-01-25T00:00:00Z,26.5255,-82.0032,2.145,6.92,1111122 
SCCF RECON,ioos:station:SCCF:13:1,2008-01-25T01:00:00Z,26.5255,-82.0032,2.12,6.86,1111122 
SCCF RECON,ioos:station:SCCF:13:1,2008-01-25T02:00:00Z,26.5255,-82.0032,2.101,6.85,1111122 
SCCF RECON,ioos:station:SCCF:13:1,2008-01-25T03:00:00Z,26.5255,-82.0032,2.18,6.91,1111122 
SCCF RECON,ioos:station:SCCF:13:1,2008-01-25T04:00:00Z,26.5255,-82.0032,2.271,6.71,1111122 
SCCF RECON,ioos:station:SCCF:13:1,2008-01-25T05:00:00Z,26.5255,-82.0032,2.3,6.23,1111122 
SCCF RECON,ioos:station:SCCF:13:1,2008-01-25T06:00:00Z,26.5255,-82.0032,2.35,6.2,1111122 
SCCF RECON,ioos:station:SCCF:13:1,2008-01-25T07:00:00Z,26.5255,-82.0032,2.44,6.31,1111122 
SCCF RECON,ioos:station:SCCF:13:1,2008-01-25T08:00:00Z,26.5255,-82.0032,2.488,6.51,1111122 
SCCF RECON,ioos:station:SCCF:13:1,2008-01-25T09:00:00Z,26.5255,-82.0032,2.463,6.31,1111122 
SCCF RECON,ioos:station:SCCF:13:1,2008-01-25T10:00:00Z,26.5255,-82.0032,2.361,6.24,1111122 
SCCF RECON,ioos:station:SCCF:13:1,2008-01-25T11:00:00Z,26.5255,-82.0032,2.254,6.3,1111122 
SCCF RECON,ioos:station:SCCF:13:1,2008-01-25T12:00:00Z,26.5255,-82.0032,2.16,6.26,1111122 
SCCF RECON,ioos:station:SCCF:13:1,2008-01-25T13:00:00Z,26.5255,-82.0032,2.082,6.26,1111122 
SCCF RECON,ioos:station:SCCF:13:1,2008-01-25T14:00:00Z,26.5255,-82.0032,2.003,6.32,1111122 
SCCF RECON,ioos:station:SCCF:13:1,2008-01-25T15:00:00Z,26.5255,-82.0032,1.941,6.71,1111122 
SCCF RECON,ioos:station:SCCF:13:1,2008-01-25T16:00:00Z,26.5255,-82.0032,1.97,6.89,1111122 
SCCF RECON,ioos:station:SCCF:13:1,2008-01-25T17:00:00Z,26.5255,-82.0032,2.07,7.03,1111122 
SCCF RECON,ioos:station:SCCF:13:1,2008-01-25T18:00:00Z,26.5255,-82.0032,2.13,7.11,1111122 
SCCF RECON,ioos:station:SCCF:13:1,2008-01-25T19:00:00Z,26.5255,-82.0032,2.2,6.94,1111122 
SCCF RECON,ioos:station:SCCF:13:1,2008-01-25T20:00:00Z,26.5255,-82.0032,2.251,7.48,1111122 
SCCF RECON,ioos:station:SCCF:13:1,2008-01-25T21:00:00Z,26.5255,-82.0032,2.289,6.96,1111122 
SCCF RECON,ioos:station:SCCF:13:1,2008-01-25T22:00:00Z,26.5255,-82.0032,2.26,7.22,1111122 
SCCF RECON,ioos:station:SCCF:13:1,2008-01-25T23:00:00Z,26.5255,-82.0032,2.19,7.27,1111122 
SCCF RECON,ioos:station:SCCF:13:1,2008-01-26T00:00:00Z,26.5255,-82.0032,2.12,7.35,1111122 
SCCF RECON,ioos:station:SCCF:13:1,2008-01-26T01:00:00Z,26.5255,-82.0032,2.07,7.39,1111122 
SCCF RECON,ioos:station:SCCF:13:1,2008-01-26T02:00:00Z,26.5255,-82.0032,2.03,7.22,1111122 
SCCF RECON,ioos:station:SCCF:13:1,2008-01-26T03:00:00Z,26.5255,-82.0032,2.02,7.22,1111122 
SCCF RECON,ioos:station:SCCF:13:1,2008-01-26T04:00:00Z,26.5255,-82.0032,2.12,7.27,1111122 
SCCF RECON,ioos:station:SCCF:13:1,2008-01-26T05:00:00Z,26.5255,-82.0032,2.228,6.61,1111122 
SCCF RECON,ioos:station:SCCF:13:1,2008-01-26T06:00:00Z,26.5255,-82.0032,2.28,6.59,1111122 
SCCF RECON,ioos:station:SCCF:13:1,2008-01-26T07:00:00Z,26.5255,-82.0032,2.34,6.72,1111122 
SCCF RECON,ioos:station:SCCF:13:1,2008-01-26T08:00:00Z,26.5255,-82.0032,2.35,6.65,1111122 
SCCF RECON,ioos:station:SCCF:13:1,2008-01-26T09:00:00Z,26.5255,-82.0032,2.35,6.36,1111122 
SCCF RECON,ioos:station:SCCF:13:1,2008-01-26T10:00:00Z,26.5255,-82.0032,2.35,6.34,1111122 
SCCF RECON,ioos:station:SCCF:13:1,2008-01-26T11:00:00Z,26.5255,-82.0032,2.279,6.34,1111122 
SCCF RECON,ioos:station:SCCF:13:1,2008-01-26T12:00:00Z,26.5255,-82.0032,2.19,6.45,1111122 
SCCF RECON,ioos:station:SCCF:13:1,2008-01-26T13:00:00Z,26.5255,-82.0032,2.13,6.37,1111122 
SCCF RECON,ioos:station:SCCF:13:1,2008-01-26T14:00:00Z,26.5255,-82.0032,2.08,6.57,1111122 
SCCF RECON,ioos:station:SCCF:13:1,2008-01-26T15:00:00Z,26.5255,-82.0032,2.05,6.78,1111122 
SCCF RECON,ioos:station:SCCF:13:1,2008-01-26T16:00:00Z,26.5255,-82.0032,2.12,6.99,1111122 
SCCF RECON,ioos:station:SCCF:13:1,2008-01-26T17:00:00Z,26.5255,-82.0032,2.22,6.84,1111122 
SCCF RECON,ioos:station:SCCF:13:1,2008-01-26T18:00:00Z,26.5255,-82.0032,2.29,7.22,1111122 
SCCF RECON,ioos:station:SCCF:13:1,2008-01-26T19:00:00Z,26.5255,-82.0032,2.35,7.15,1111122 
SCCF RECON,ioos:station:SCCF:13:1,2008-01-26T20:00:00Z,26.5255,-82.0032,2.41,7.22,1111122 
SCCF RECON,ioos:station:SCCF:13:1,2008-01-26T21:00:00Z,26.5255,-82.0032,2.459,7.71,1111122 
SCCF RECON,ioos:station:SCCF:13:1,2008-01-26T22:00:00Z,26.5255,-82.0032,2.45,7.43,1111122 
SCCF RECON,ioos:station:SCCF:13:1,2008-01-26T23:00:00Z,26.5255,-82.0032,2.38,7.18,1111122 
SCCF RECON,ioos:station:SCCF:13:1,2008-01-27T00:00:00Z,26.5255,-82.0032,2.3,7.39,1111122 
SCCF RECON,ioos:station:SCCF:13:1,2008-01-27T03:00:00Z,26.5255,-82.0032,2.2,7.08,1111122 
SCCF RECON,ioos:station:SCCF:13:1,2008-01-27T04:00:00Z,26.5255,-82.0032,2.18,7.34,1111122 
SCCF RECON,ioos:station:SCCF:13:1,2008-01-27T05:00:00Z,26.5255,-82.0032,2.28,7.27,1111122 
SCCF RECON,ioos:station:SCCF:13:1,2008-01-27T06:00:00Z,26.5255,-82.0032,2.35,6.57,1111122 
SCCF RECON,ioos:station:SCCF:13:1,2008-01-27T07:00:00Z,26.5255,-82.0032,2.39,6.59,1111122 
SCCF RECON,ioos:station:SCCF:13:1,2008-01-27T08:00:00Z,26.5255,-82.0032,2.44,6.77,1111122 
SCCF RECON,ioos:station:SCCF:13:1,2008-01-27T09:00:00Z,26.5255,-82.0032,2.49,6.91,1111122 
SCCF RECON,ioos:station:SCCF:13:1,2008-01-27T10:00:00Z,26.5255,-82.0032,2.51,6.64,1111122 
SCCF RECON,ioos:station:SCCF:13:1,2008-01-27T11:00:00Z,26.5255,-82.0032,2.48,6.43,1111122 
SCCF RECON,ioos:station:SCCF:13:1,2008-01-27T12:00:00Z,26.5255,-82.0032,2.391,6.28,1111122 
SCCF RECON,ioos:station:SCCF:13:1,2008-01-27T13:00:00Z,26.5255,-82.0032,2.33,6.43,1111122 
SCCF RECON,ioos:station:SCCF:13:1,2008-01-27T14:00:00Z,26.5255,-82.0032,2.29,6.5,1111122 
SCCF RECON,ioos:station:SCCF:13:1,2008-01-27T15:00:00Z,26.5255,-82.0032,2.251,6.74,1111122 
SCCF RECON,ioos:station:SCCF:13:1,2008-01-27T16:00:00Z,26.5255,-82.0032,2.21,6.93,1111122 
SCCF RECON,ioos:station:SCCF:13:1,2008-01-27T17:00:00Z,26.5255,-82.0032,2.161,6.91,1111122 
SCCF RECON,ioos:station:SCCF:13:1,2008-01-27T18:00:00Z,26.5255,-82.0032,2.163,7.06,1111122 
SCCF RECON,ioos:station:SCCF:13:1,2008-01-27T19:00:00Z,26.5255,-82.0032,2.3,6.93,1111122 
SCCF RECON,ioos:station:SCCF:13:1,2008-01-27T20:00:00Z,26.5255,-82.0032,2.401,7.11,1111122 
SCCF RECON,ioos:station:SCCF:13:1,2008-01-27T21:00:00Z,26.5255,-82.0032,2.416,7.16,1111122 
SCCF RECON,ioos:station:SCCF:13:1,2008-01-27T22:00:00Z,26.5255,-82.0032,2.39,7.09,1111122 
SCCF RECON,ioos:station:SCCF:13:1,2008-01-27T23:00:00Z,26.5255,-82.0032,2.28,7.09,1111122 
SCCF RECON,ioos:station:SCCF:13:1,2008-01-28T00:00:00Z,26.5255,-82.0032,2.2,7.17,1111122 
SCCF RECON,ioos:station:SCCF:13:1,2008-01-28T01:00:00Z,26.5255,-82.0032,2.17,7.23,1111122 
SCCF RECON,ioos:station:SCCF:13:1,2008-01-28T02:00:00Z,26.5255,-82.0032,2.14,7.15,1111122 
SCCF RECON,ioos:station:SCCF:13:1,2008-01-28T03:00:00Z,26.5255,-82.0032,2.07,7.2,1111122 
SCCF RECON,ioos:station:SCCF:13:1,2008-01-28T04:00:00Z,26.5255,-82.0032,2.01,7.15,1111122 
SCCF RECON,ioos:station:SCCF:13:1,2008-01-28T05:00:00Z,26.5255,-82.0032,2.0,7.01,1111122 
SCCF RECON,ioos:station:SCCF:13:1,2008-01-28T06:00:00Z,26.5255,-82.0032,2.044,6.95,1111122 
SCCF RECON,ioos:station:SCCF:13:1,2008-01-28T07:00:00Z,26.5255,-82.0032,2.119,6.74,1111122 
SCCF RECON,ioos:station:SCCF:13:1,2008-01-28T08:00:00Z,26.5255,-82.0032,2.15,6.55,1111122 
SCCF RECON,ioos:station:SCCF:13:1,2008-01-28T10:00:00Z,26.5255,-82.0032,2.2,6.32,1111122 
SCCF RECON,ioos:station:SCCF:13:1,2008-01-28T11:00:00Z,26.5255,-82.0032,2.178,6.33,1111122 